Tracking 24122 objects as of 9-Dec-2021
HD Live streaming from Space Station
objects crossing your sky now

OPS 4682 DEB

Track OPS 4682 DEB now!
10-day predictions


NORAD ID: 19593
Int'l Code: 1965-027AW
Perigee: 1,270.5 km
Apogee: 1,313.4 km
Inclination: 90.3 °
Period: 111.3 minutes
Semi major axis: 7662 km
RCS: 0.0119 m2 (small)
Launch date: April 3, 1965
Source: United States (US)
Launch site: AIR FORCE WESTERN TEST RANGE (AFWTR)

Note: This is SATELLITE DEBRIS
aabbcc
Your satellite tracking list
Your tracking list is empty




NASA's NSSDC Master Catalog

Two Line Element Set (TLE):
1 19593U 65027AW  21342.45539385  .00000287  00000-0  10070-2 0  9998
2 19593  90.2663 329.2517 0028044 128.6260  25.3727 12.94223770588348
Source of the keplerian elements: AFSPC